Weather Roundup
Issued by NWS Chicago, IL

Home | Current Version | Previous Version | Graphics & Text | Print | Product List | Glossary On
Versions: 1 2 3 4 5 6 7 8 9 10 11 12 13 14 15 16 17 18 19 20 21 22 23 24 25 26 27 28 29 30 31 32 33 34 35 36 37 38 39 40 41 42 43 44 45 46 47 48 49 50
000
NZUS59 KLOT 271202
HRRLOT

CHICAGO AREA WEATHER ROUNDUP
NATIONAL WEATHER SERVICE CHICAGO/ROMEOVILLE IL
700 AM CDT FRI MAR 27 2015

NOTE: "FAIR" INDICATES FEW OR NO CLOUDS BELOW 12,000 FEET WITH NO
SIGNIFICANT WEATHER AND/OR OBSTRUCTIONS TO VISIBILITY.

* THESE STATIONS ARE NOT UNDER NWS QUALITY CONTROL. THEY ALSO MAY NOT
  REPORT WEATHER SUCH AS PRECIPITATION OR FOG.

ILZ005-006-012>014-019>023-271300-
NORTHEAST ILLINOIS

CITY           SKY/WX    TMP DP  RH WIND       PRES   REMARKS
OHARE          LGT SNOW  23  15  71 N14       30.12R WCI  11
6HR MIN TEMP:  23; 6HR MAX TEMP:  31; 6HR PCP:  0.04;

MIDWAY         LGT SNOW  26  20  77 N17G28    30.12R FOG     WCI  13
6HR MIN TEMP:  26; 6HR MAX TEMP:  32; 6HR PCP:  0.01;

AURORA         CLEAR     23  14  68 N15       30.13R WCI  10
6HR MIN TEMP:  23; 6HR MAX TEMP:  32; 6HR PCP: TRACE;

WAUKEGAN       CLOUDY    19   5  54 N10G17    30.14R WCI   7
6HR MIN TEMP:  19; 6HR MAX TEMP:  28; 6HR PCP:  0.02;

DUPAGE AIRPORT MOCLDY    24  14  65 N12       30.12R WCI  13
6HR MIN TEMP:  24; 6HR MAX TEMP:  31; 6HR PCP: TRACE;

WHEELING       CLOUDY    22   7  52 N16G23    30.15R WCI   8
6HR MIN TEMP:  22; 6HR MAX TEMP:  29; 6HR PCP: TRACE;

NORTHERLY IS     N/A     25  19  78 N22         N/A  WCI  10
$$

WIZ051-052-058>065-066-070>072-271300-
SOUTHEAST WISCONSIN

CITY           SKY/WX    TMP DP  RH WIND       PRES   REMARKS
MILWAUKEE      PTCLDY    18   4  54 N10       30.16R WCI   6
6HR MIN TEMP:  18; 6HR MAX TEMP:  27; 6HR PCP:  0.01;

KENOSHA*       PTCLDY    20   5  52 N12G22    30.15R WCI   8
RACINE*        PTCLDY    18   4  54 NW13      30.16R WCI   5
WAUKESHA       CLEAR     16   3  57 NW9       30.17R WCI   4
$$

INZ001>003-010>013-019-020-271300-
NORTHWEST INDIANA

CITY           SKY/WX    TMP DP  RH WIND       PRES   REMARKS
GARY*          LGT SNOW  28  19  69 N18G32    30.12R WCI  16
MICHIGAN CITY* NOT AVBL
RENSSELAER*    NOT AVBL
$$

LMZ740>746-271300-
SOUTHERN LAKE MICHIGAN

STATION/POSITION TIME  SKY/WX   TEMP WIND        PRES    VSBY
                                AIR  DIR/SP/G
                 (UTC)          (F)  (DEG/KT/KT) (MB)    (MI)
HARRISON CRIB    1100            25   10/ 25/ 30   N/A
BURNHAM HARBOR   1200            25  350/ 14/ 22   N/A
CALUMET HARBOR   1100            27  350/ 17/ 23 1018.1R
BURNS HARBOR     1100            28   30/ 20/ 25 1019.0R
MICHIGAN CITY    1100            25   10/ 22/ 26   N/A
$$

ABBREVIATIONS USED IN REMARKS
   TC - TEMPERATURE IN CELSIUS
  WCI - WIND CHILL INDEX
   HX - HEAT INDEX
  VSB - VISIBILITY
$$


USA.gov is the U.S. government's official web portal to all federal, state and local government web resources and services.